Location: Carrer del Canonge
(41.4901°N, 2.2931°E)
Time: 14:05:31
(UTC+00:00)

NOSS 3-2 (C) - Pass Details

Date: 18 September 2020
Orbit: 795 x 1418 km, 63.4° (Epoch: 25 October)

Event Time Altitude Azimuth Distance (km) Brightness Sun altitude
Rises 20:35:05 0° 325° (NW) 4,003 7.7 -29.4°
Reaches altitude 10° 20:37:39 10° 326° (NW) 3,122 6.9 -29.8°
Maximum altitude 20:45:21 84° 55° (NE) 1,320 4.0 -31.0°
Enters shadow 20:46:12 74° 124° (ESE) 1,368 3.9 -31.1°
